www.pogodaiklimat.ru

Погода и климат >> Архив погоды >> Австрия >> Андау


ПОГОДА в Андау

  • Прогноз погоды в Андау
  • Монитор погоды в Андау

АРХИВ ПОГОДЫ в Андау

Время (UTC), дата Ветер
(напр.,м/с)
 
Видим.   Явления Облачность Т
(С)
Тd
(С)
f
(%)
Тe
(С)
Тes
(С)
Комфортность P
(гПа)
Po
(гПа)
Тmin
(С)
Tmax
(С)
R
(мм)
R24
(мм)
S
(см)
01 15.03 ЮЗ 1 н/о н/о +6.4 +3.2 80 +5 +5 1003.9 989.2
02 15.03 Ю 1 н/о н/о +6.1 +2.8 79 +5 +5 1004.2 989.5
03 15.03 З 3 н/о н/о +7.6 +2.4 70 +5 +5 1004.5 989.9
04 15.03 З 2 н/о н/о +7.3 +2.4 71 +5 +5 1005.1 990.5
05 15.03 З 2 н/о н/о +6.5 +1.8 72 +4 +4 1005.9 991.2
06 15.03 З 5 н/о н/о +6.8 +2.3 73 +3 +3 1007.1 992.4 +6.0 +10.5 0.5
07 15.03 З 4 н/о н/о +8.3 +2.5 67 +5 +5 1007.9 993.3
08 15.03 СЗ 5 н/о н/о +10.0 +2.0 58 +7 +7 1008.7 994.1
09 15.03 З 5 н/о н/о +11.7 +0.5 46 +10 +10 1009.2 994.7
10 15.03 З 6
{14}
н/о н/о +12.3 0.0 43 +10 +10 1008.9 994.4
11 15.03 СЗ 5
{14}
н/о н/о +12.7 +0.1 42 +11 +11 1008.6 994.2
12 15.03 СЗ 6
{14}
н/о н/о +12.7 +0.2 42 +11 +11 1008.5 994.1
13 15.03 З 4 н/о н/о +12.4 +0.6 44 +11 +11 1008.0 993.6
14 15.03 З 5 н/о н/о +11.7 +1.4 49 +10 +10 1008.6 994.1
15 15.03 СЗ 3 н/о н/о +11.1 +2.4 55 +10 +10 1008.5 994.0
16 15.03 Ю 2 н/о осадки н/о +9.0 +4.8 75 +7 +7 1008.8 994.2 1
17 15.03 Ю 2 н/о осадки н/о +7.5 +5.6 88 +5 +5 1009.1 994.4 3
18 15.03 Ю 2
{14}
н/о осадки н/о +7.2 +5.3 88 +5 +5 1008.8 994.1 +6.7 +13.0 7
19 15.03 Ю 3 н/о осадки н/о +7.3 +5.7 90 +4 +4 1008.0 993.3 2
20 15.03 Ю 3 н/о осадки н/о +7.2 +5.8 91 +4 +4 1007.4 992.7 1
21 15.03 ЮЗ 3 н/о осадки н/о +7.7 +5.9 88 +5 +5 1007.3 992.7 4
22 15.03 Ю 2 н/о в посл. час осадки н/о +7.5 +5.9 90 +5 +5 1007.1 992.4 0.2
23 15.03 Ю 1 н/о н/о +7.9 +5.8 87 +7 +7 1006.5 991.9
00 16.03 Ю 1 н/о {осадки} н/о +7.7 +5.5 86 +7 +7 1006.1 991.5 4
01 16.03 ЮЗ 2 н/о н/о +9.1 +5.7 79 +7 +7 1005.6 991.0
02 16.03 З 2 н/о н/о +10.5 +6.2 75 +9 +9 1004.9 990.4
03 16.03 СЗ 4 н/о н/о +12.3 +6.6 68 +10 +10 1006.5 992.1
04 16.03 С 5 н/о в посл. час осадки н/о +7.8 +4.6 80 +4 +4 1008.1 993.4 0.0
05 16.03 С 5 н/о н/о +6.9 +4.4 84 +3 +3 1009.0 994.3 0.0
06 16.03 СЗ 6
{14}
н/о {осадки} н/о +7.8 +4.0 77 +4 +4 1010.0 995.3 +6.9 +12.9 4
07 16.03 С 4 н/о н/о +7.6 +4.5 81 +4 +4 1011.2 996.5
08 16.03 СЗ 4 н/о осадки н/о +7.7 +4.5 80 +4 +4 1012.3 997.6 0.2
09 16.03 СЗ 4 н/о в посл. час осадки н/о +8.0 +4.6 79 +5 +5 1013.1 998.4 0.4
10 16.03 З 2 н/о в посл. час осадки н/о +8.3 +4.5 77 +7 +7 1014.0 999.3 0.0
11 16.03 СЗ 2 н/о н/о +8.6 +4.4 75 +7 +7 1014.3 999.6
12 16.03 З 2 н/о осадки {ливн. осадки} н/о +8.0 +5.7 85 +6 +6 1014.2 999.5 0.4
13 16.03 ЮЗ 1 н/о осадки н/о +7.6 +6.2 91 +7 +7 1013.8 999.1 0.1
14 16.03 Ю 1 н/о в посл. час осадки н/о +8.1 +6.5 90 +7 +7 1013.4 998.7 0.0
15 16.03 ЮВ 2 н/о {осадки} н/о +8.6 +6.8 88 +7 +7 1013.3 998.6 0.1
16 16.03 ЮВ 2 н/о н/о +8.9 +7.1 88 +7 +7 1012.8 998.1
17 16.03 ЮВ 2 н/о н/о +8.6 +6.9 89 +7 +7 1012.6 997.9
18 16.03 Ю 2 н/о {осадки} н/о +8.9 +6.4 84 +7 +7 1012.7 998.0 +7.5 +9.0 0.5
19 16.03 Ю 1 н/о н/о +8.4 +6.4 87 +8 +8 1012.9 998.2
20 16.03 Ю 1 н/о н/о +8.2 +6.0 86 +7 +7 1012.7 998.0
21 16.03 Ю 1 н/о н/о +8.5 +6.0 84 +8 +8 1012.4 997.7
22 16.03 Ю 2 н/о н/о +8.7 +6.0 83 +7 +7 1012.3 997.6
23 16.03 Ю 2 н/о н/о +8.0 +5.3 83 +6 +6 1011.8 997.1
00 17.03 Ю 2 н/о н/о +8.0 +5.0 81 +6 +6 1011.2 996.5
01 17.03 ЮВ 2 н/о н/о +6.7 +4.5 86 +4 +4 1010.7 995.9
02 17.03 Ю 2 н/о н/о +6.0 +4.1 88 +4 +4 1010.2 995.4
03 17.03 ЮВ 1 н/о н/о +5.0 +3.6 91 +4 +4 1010.1 995.3
04 17.03 В 1 н/о н/о +4.4 +3.2 92 +3 +3 1010.4 995.5
05 17.03 ЮВ 1 н/о н/о +3.8 +2.9 94 +2 +2 1010.3 995.4
06 17.03 СВ 1 н/о н/о +4.3 +3.4 94 +3 +3 1010.5 995.6 +3.1 +8.9
07 17.03 В 1 н/о н/о +6.2 +4.4 88 +5 +5 1010.6 995.8
08 17.03 Ю 1 н/о н/о +9.1 +6.0 81 +9 +9 1010.4 995.8 0.0
09 17.03 ЮВ 1 н/о н/о +12.0 +7.7 75 +12 +12 1010.0 995.5 0.0
10 17.03 ЮВ 3 н/о н/о +15.0 +8.4 65 +14 +14 1009.4 995.1 0.0
11 17.03 Ю 2 н/о н/о +17.7 +9.7 59 +18 +18 1008.6 994.4 0.0
12 17.03 Ю 3 н/о н/о +19.2 +8.2 49 +20 +20 1007.5 993.4 0.0
13 17.03 ЮВ 4 н/о н/о +20.3 +9.4 50 +22 +22 комфорт 1006.2 992.2
14 17.03 Ю 5 н/о н/о +20.7 +8.0 44 +22 +22 комфорт 1005.1 991.1
15 17.03 Ю 4 н/о н/о +20.9 +8.3 44 +22 +22 комфорт 1003.8 989.9
16 17.03 Ю 2 н/о н/о +19.4 +7.1 45 +21 +21 комфорт 1003.5 989.5
17 17.03 Ю 3 н/о н/о +16.9 +5.9 48 +17 +17 1003.7 989.6
18 17.03 Ю 4 н/о н/о +15.5 +5.9 53 +15 +15 1002.9 988.7 +4.0 +21.2 0.0
19 17.03 Ю 3 н/о н/о +14.2 +5.9 57 +13 +13 1003.3 989.0
20 17.03 Ю 4 н/о н/о +13.6 +5.8 59 +12 +12 1003.1 988.8
21 17.03 ЮЗ 4 н/о н/о +13.0 +5.8 62 +11 +11 1003.5 989.2
22 17.03 ЮЗ 3 н/о н/о +11.9 +5.4 64 +10 +10 1004.5 990.1
23 17.03 З 2 н/о н/о +11.1 +5.0 66 +10 +10 1006.8 992.3
00 18.03 СЗ 7
{16}
н/о н/о +10.4 +3.7 63 +7 +7 1009.3 994.8
01 18.03 СЗ 7
{18}
н/о н/о +8.5 +3.4 70 +4 +4 1011.2 996.5
02 18.03 СЗ 7
{14}
н/о н/о +7.9 +3.1 72 +4 +4 1012.0 997.3
03 18.03 СЗ 5
{18}
н/о н/о +7.8 +2.3 68 +4 +4 1012.3 997.6
04 18.03 СЗ 5 н/о н/о +7.7 +2.1 68 +4 +4 1012.8 998.1
05 18.03 СЗ 4 н/о н/о +7.5 +2.1 69 +4 +4 1013.9 999.1
06 18.03 СЗ 5
{18}
н/о н/о +7.6 +1.5 65 +4 +4 1014.5 999.7 +7.4 +15.6 0.0
07 18.03 СЗ 6
{13}
н/о н/о +7.8 +1.5 64 +4 +4 1015.6 1000.8
08 18.03 СЗ 4 н/о н/о +7.9 +1.1 62 +5 +5 1016.6 1001.8 0.0
09 18.03 СЗ 5
{13}
н/о н/о +8.4 +0.4 57 +5 +5 1016.8 1002.0 0.0
10 18.03 СЗ 5 н/о н/о +8.6 -0.3 54 +6 +6 1017.7 1002.9
11 18.03 СЗ 5 н/о н/о +8.8 -0.5 52 +6 +6 1018.0 1003.2
12 18.03 СЗ 5
{13}
н/о н/о +9.4 -0.8 49 +7 +7 1017.9 1003.2 0.0
13 18.03 СЗ 4 н/о н/о +9.0 -0.9 50 +7 +7 1017.4 1002.7
14 18.03 СЗ 4 н/о н/о +9.3 -1.0 49 +7 +7 1017.6 1002.9
15 18.03 СЗ 4 н/о н/о +9.8 -0.3 49 +8 +8 1017.4 1002.7
16 18.03 СЗ 4 н/о н/о +9.2 -1.2 48 +7 +7 1018.0 1003.3
17 18.03 СЗ 3 н/о н/о +8.4 -0.5 53 +6 +6 1019.0 1004.2
18 18.03 З 2
{13}
н/о н/о +7.5 +0.3 60 +6 +6 1020.2 1005.3 +7.5 +9.8 0.0
19 18.03 СЗ 1 н/о н/о +6.8 +0.6 65 +6 +6 1020.7 1005.8
20 18.03 СЗ 2 н/о н/о +6.4 +0.4 65 +4 +4 1021.1 1006.2
21 18.03 СЗ 2 н/о н/о +6.2 +0.5 67 +4 +4 1021.8 1006.8
22 18.03 СЗ 2 н/о н/о +6.0 +0.2 66 +4 +4 1022.4 1007.4
23 18.03 СЗ 2 н/о н/о +5.4 +0.5 71 +3 +3 1022.5 1007.5
00 19.03 СЗ 2 н/о н/о +5.0 +0.3 72 +3 +3 1022.7 1007.7
01 19.03 СЗ 2 н/о н/о +5.0 0.0 70 +3 +3 1022.9 1007.9
02 19.03 СЗ 2 н/о н/о +4.6 -0.1 72 +2 +2 1022.9 1007.8
03 19.03 СЗ 2 н/о н/о +4.8 +0.1 72 +2 +2 1023.0 1008.0
04 19.03 СЗ 2 н/о н/о +4.3 +0.2 75 +2 +2 1023.5 1008.4
05 19.03 СЗ 3 н/о н/о +4.0 +0.2 76 0 0 1023.8 1008.7
06 19.03 С 3 н/о н/о +4.3 +0.1 74 +1 +1 1024.4 1009.3 +3.9 +7.6
07 19.03 СЗ 3 н/о н/о +5.0 +0.3 72 +2 +2 1025.2 1010.1
08 19.03 СЗ 4 н/о н/о +5.7 +0.2 68 +2 +2 1025.5 1010.5
09 19.03 С 3 н/о н/о +6.9 +0.5 64 +4 +4 1026.0 1011.0
10 19.03 СЗ 3 н/о н/о +8.4 +0.8 59 +6 +6 1026.0 1011.1
11 19.03 СЗ 2 н/о н/о +8.5 +0.7 58 +7 +7 1026.1 1011.2
12 19.03 С 3 н/о н/о +9.7 +0.3 52 +8 +8 1025.8 1011.0
13 19.03 СЗ 3 н/о н/о +10.1 -1.5 44 +8 +8 1025.6 1010.8
14 19.03 С 3 н/о н/о +10.1 -2.0 43 +8 +8 1025.3 1010.5
15 19.03 СЗ 3 н/о н/о +10.0 -2.5 41 +8 +8 1025.6 1010.8
16 19.03 С 3 н/о н/о +9.0 -3.2 42 +7 +7 1026.1 1011.2
17 19.03 С 2 н/о н/о +8.4 -2.2 47 +7 +7 1026.9 1012.0
18 19.03 С 2 н/о н/о +7.2 -2.1 52 +6 +6 1027.7 1012.7 +4.2 +10.7
19 19.03 СЗ 1 н/о н/о +5.7 -1.8 58 +5 +5 1028.5 1013.4
20 19.03 СЗ 1 н/о н/о +5.1 -2.1 60 +4 +4 1028.8 1013.7
21 19.03 СЗ 2 н/о н/о +4.4 -2.1 63 +2 +2 1029.5 1014.3
22 19.03 СЗ 2 н/о н/о +3.8 -2.7 62 +1 +1 1029.9 1014.7
23 19.03 СЗ 2 н/о н/о +3.5 -3.0 62 +1 +1 1030.1 1014.9
00 20.03 СЗ 2 н/о н/о +2.9 -2.7 67 0 0 1031.0 1015.7
01 20.03 СЗ 3 н/о н/о +2.6 -2.9 67 -1 -1 1031.1 1015.8
02 20.03 СЗ 3 н/о н/о +2.0 -3.0 69 -2 -2 1031.3 1016.0
03 20.03 СЗ 2 н/о н/о +1.1 -3.1 74 -2 -2 1031.6 1016.2
04 20.03 СЗ 2 н/о н/о +0.4 -3.1 77 -3 -3 1031.9 1016.5
05 20.03 СЗ 2 н/о н/о +0.4 -3.0 78 -3 -3 1032.2 1016.8
06 20.03 СЗ 3 н/о н/о +1.0 -2.5 77 -3 -3 1033.1 1017.7 +0.4 +7.3
07 20.03 СЗ 3 н/о н/о +3.5 -1.3 71 -0 -0 1033.9 1018.6
08 20.03 СЗ 3 н/о н/о +6.3 -1.0 60 +4 +4 1034.2 1019.1
09 20.03 С 2 н/о н/о +9.0 -1.5 48 +8 +8 1034.2 1019.2
10 20.03 СЗ 3 н/о н/о +9.5 -2.9 42 +8 +8 1034.5 1019.5
11 20.03 СЗ 3 н/о н/о +9.4 -7.2 30 +8 +8 1034.5 1019.5
12 20.03 С 3 н/о н/о +10.4 -5.2 33 +9 +9 1034.1 1019.2
13 20.03 СЗ 3 н/о н/о +10.1 -3.4 38 +9 +9 1033.9 1019.0
14 20.03 С 3 н/о н/о +9.8 -4.6 36 +8 +8 1033.9 1018.9
15 20.03 СЗ 4 н/о н/о +9.3 -3.7 40 +7 +7 1033.8 1018.8
16 20.03 СЗ 3 н/о н/о +9.3 -3.6 40 +8 +8 1034.0 1019.0
17 20.03 СЗ 2 н/о н/о +7.4 -4.0 44 +6 +6 1034.3 1019.2
18 20.03 СЗ 1 н/о н/о +6.1 -3.9 49 +6 +6 1035.0 1019.8 +0.8 +11.2
19 20.03 СЗ 1 н/о н/о +5.0 -3.5 54 +4 +4 1035.4 1020.2
20 20.03 СЗ 1 н/о н/о +3.8 -3.4 59 +3 +3 1035.7 1020.4
21 20.03 З 1 н/о н/о +3.1 -3.0 64 +2 +2 1035.8 1020.5
22 20.03 СЗ 1 н/о н/о +2.6 -2.6 69 +1 +1 1036.3 1020.9
23 20.03 З 1 н/о н/о +2.2 -2.4 72 +1 +1 1036.4 1021.0
00 21.03 СЗ 1 н/о н/о +1.1 -2.1 79 -1 -1 1036.6 1021.1
01 21.03 штиль 0 н/о н/о -0.4 -3.1 82 -1 -1 1036.6 1021.1
02 21.03 СЗ 1 н/о н/о +0.4 -3.0 78 -1 -1 1036.4 1020.9
03 21.03 СЗ 2 н/о н/о +0.7 -3.3 75 -3 -3 1036.3 1020.8
04 21.03 СЗ 1 н/о н/о +0.7 -3.3 75 -1 -1 1036.2 1020.7
05 21.03 З 1 н/о н/о -0.5 -4.1 77 -2 -2 1036.3 1020.8
06 21.03 Ю 1 н/о н/о -0.7 -3.7 80 -3 -3 1037.1 1021.5 -1.6 +6.3
07 21.03 штиль 0 н/о н/о +3.6 -1.8 68 +3 +3 1037.3 1022.0
08 21.03 С 1 н/о н/о +6.5 -1.3 57 +6 +6 1037.4 1022.2
09 21.03 штиль 0 н/о н/о +8.9 -1.1 49 +9 +9 1037.0 1022.0
10 21.03 ЮЗ 1 н/о н/о +11.1 -1.2 42 +11 +11 1036.8 1021.9
11 21.03 СЗ 1 н/о н/о +12.0 -1.7 38 +12 +12 1036.3 1021.4 0.0
12 21.03 СВ 1 н/о н/о +13.4 -1.3 36 +14 +14 1035.5 1020.7 0.0
13 21.03 С 2 н/о н/о +13.3 -2.4 34 +13 +13 1034.6 1019.8
15 21.03 СВ 1 н/о н/о +14.2 -2.2 32 +15 +15 1033.4 1018.7
18 21.03 штиль 0 н/о н/о +9.3 -1.5 47 +9 +9 1033.5 1018.5 -1.4 +14.5 0.0
19 21.03 СЗ 1 н/о н/о +8.2 -1.7 50 +8 +8 1033.8 1018.8
21 21.03 штиль 0 н/о н/о +5.3 -1.3 62 +5 +5 1034.0 1018.8
22 21.03 ЮЗ 1 н/о н/о +4.4 -0.7 69 +3 +3 1034.0 1018.8
00 22.03 З 1 н/о н/о +3.1 -0.9 75 +2 +2 1033.8 1018.5
01 22.03 штиль 0 н/о н/о +2.3 -1.8 74 +1 +1 1033.5 1018.2

 

Местоположение метеостанции Андау (Австрия): широта 47.77 долгота 17.03 высота над уровнем моря 121 м.

В архиве по умолчанию представлена погода в Андау за последнюю неделю. Архивные данные за месяц целиком и за предыдущие месяцы, начиная с января 2011 года, Вы можете получить, выбрав интересующий диапазон дат из раскрывающегося списка и нажав кнопку "Ввод!".


*Определитесь, кто Вы:
робот инопланетянин человек

Внимание! Время в таблицах - всемирное. Для получения местного времени необходимо прибавить поправку, которая равна 1 ч.

Смотрите также архив погоды в соседних городах и на ближайших метеорологических станциях:

Погода в Мошонмадьяроваре (Венгрия) (22 км)
Погода в Нойзидль-ам-Зе (Австрия) (24 км)
Погода в Нойзидль-ам-Зе (Австрия) (25 км)
Погода в Шопроне (Венгрия) (34 км)
Погода в Айзенштадте (Австрия) (38 км)
Погода в Луцмансбурге (Австрия) (44 км)
Погода в Братислава-Колибе (Словакия) (45 км)
Погода в Зайберсдорфе (Австрия) (46 км)
Погода в Дьере (Венгрия) (49 км)
Погода в Братиславе (Словакия) (49 км)

Пояснения к столбцам:

Ветер - указаны скорость ветра в м/с - средняя за 10 мин, порывы в срок и между сроками (в фигурных скобках) и направление, откуда дует ветер: С - северный, СВ - северо-восточный, В - восточный, ЮВ - юго-восточный, Ю - южный, ЮЗ - юго-западный, З - западный, СЗ - северо-западный.
Видимость - горизонтальная дальность видимости в метрах или километрах. При видимости от 1 до 10 км при отсутствии осадков обычно наблюдается дымка, при ухудшении видимости до 1 км и менее - туман. В сухую погоду видимость может ухудшаться дымом, пылью или мглою.
Явления - указаны атмосферные явления, наблюдавшиеся в срок или в последний час перед сроком; фигурными скобками обозначены явления, наблюдавшиеся между сроками (за 1-3 часа до срока); квадратными скобками обозначены град или гололедные отложения с указанием их диаметра в мм.
Облачность - указаны через наклонную черту общая и нижняя облачность в баллах и высота нижней границы облаков в метрах; квадратными скобками обозначены формы облаков: Ci - перистые, Cs - перисто-слоистые, Cc - перисто-кучевые, Ac - высококучевые, As - высокослоистые, Sc - слоисто-кучевые, Ns - слоисто-дождевые, Cu - кучевые, Cb - кучево-дождевые. Подробнее классификацию облаков см. в Атласе облаков (PDF).
T - Температура воздуха - температура, измеренная на высоте 2 м над землей.
Td - Температура точки росы - температура, при понижении до которой содержащийся в воздухе водяной пар достигнет насыщения.
f - Относительная влажность воздуха - влажноcть воздуха, измеренная на высоте 2 м над землей.
Te - Эффективная температура - температура, которую ощущает одетый по сезону человек в тени. Характеристика душности погоды. При расчете учитывается влияние влажности воздуха и скорости ветра на теплоощущения человека.
Tes - Эффективная температура на солнце - температура, которую ощущает человек, с поправкой на солнечный нагрев. Характеристика знойности погоды. Зависит от высоты солнца над горизонтом, облачности и скорости ветра. Ночью, в пасмурную погоду, а также при ветре 12 м/с и более поправка равна нулю.
P - Атмосферное давление - приведенное к уровню моря атмосферное давление.
Po - Атмосферное давление - измеренное на уровне метеостанции атмосферное давление.
Tmin - Минимальная температура - минимум температуры воздуха на высоте 2 м над землей.
Tmax - Максимальная температура - максимум температуры воздуха на высоте 2 м над землей.
R - Количество осадков - Количество выпавших осадков за период времени, мм. При наведении курсора мыши на число - период времени, за который выпало указанное количество осадков.
R24 - Количество осадков - Количество выпавших осадков за 24 часа, мм.
S - Снежный покров - Высота снежного покрова, см. При наведении курсора мыши на число - состояние снежного покрова и степень покрытия местности в баллах.